ECMWFFLT1_925_thetae_000.txt.gz
Theta_e
314 315 315 315 314 314 316 316 316 318 318 317 318 319 318 319 319 320 320 321 321 322 323 324 324 325 326 327 329 331 332 331 332 334 334 334 333 332 331 330 329 329 329 330 329 328 330 333 332 331 331 329 328 328 327 327 326 326 327 327 327 327 327
314 315 315 315 314 314 316 316 317 317 318 317 318 318 318 319 319 319 320 320 321 321 322 322 323 323 324 325 326 328 331 333 332 333 334 333 333 332 331 330 328 328 328 329 329 328 327 328 330 332 332 331 329 328 327 327 327 326 326 325 326 327 328
315 315 314 314 314 315 315 316 316 317 318 318 318 317 317 317 318 318 318 319 319 320 321 321 321 322 322 323 325 325 327 330 332 333 333 333 333 332 331 330 329 329 329 329 329 328 328 328 329 330 331 332 331 329 328 328 327 327 325 325 326 327 327
315 314 314 314 315 315 315 315 315 315 316 317 317 317 317 317 317 318 317 316 316 317 319 320 320 320 321 322 323 324 324 326 329 331 333 333 333 332 332 331 330 330 329 329 328 328 329 329 331 333 332 330 330 330 330 329 328 327 326 325 327 327 325
316 315 314 316 316 315 314 315 315 314 315 315 316 316 316 317 316 316 317 316 317 317 318 319 319 320 321 321 321 323 324 324 325 328 331 333 332 332 331 331 331 330 330 329 329 328 329 329 332 335 333 330 331 331 330 331 329 327 327 327 328 327 326
316 315 315 315 315 315 315 315 314 313 314 314 315 314 315 315 315 315 316 316 316 317 318 318 319 319 320 320 320 321 321 323 323 325 328 331 331 331 331 330 331 330 330 329 329 329 330 330 332 335 332 330 331 331 331 331 330 329 328 327 329 328 327
316 316 315 314 315 314 313 314 314 313 313 313 313 314 314 314 314 314 314 313 313 314 316 317 318 317 318 318 319 320 320 321 322 323 324 327 329 330 330 330 330 330 330 329 329 329 329 330 332 333 331 331 331 331 332 330 329 329 330 328 328 329 328
315 315 314 313 314 314 313 313 313 313 313 312 312 313 314 314 314 313 312 312 313 313 313 315 316 316 317 317 318 319 319 319 320 321 322 324 325 327 329 330 330 330 330 329 329 329 329 328 329 329 330 332 333 333 333 331 328 328 328 329 329 328 328
314 314 313 312 313 314 313 313 313 313 313 312 313 313 313 313 313 313 313 313 313 313 313 313 314 315 315 316 317 317 318 318 320 320 321 322 323 324 326 328 329 330 330 330 329 329 329 328 328 328 329 331 333 334 334 334 332 330 327 328 329 327 328
313 313 312 312 312 313 313 313 313 313 313 313 313 313 313 314 313 313 313 312 312 311 311 312 312 313 313 314 316 316 317 318 319 320 320 321 322 323 324 325 328 329 329 330 330 329 329 329 329 328 328 329 331 332 334 335 334 332 328 326 327 328 327
312 312 311 312 313 312 312 312 312 313 313 313 313 312 313 312 312 312 312 311 311 310 310 310 310 311 311 312 313 314 316 317 317 318 319 320 321 322 322 323 326 329 329 329 330 330 330 330 329 329 329 329 330 332 332 333 333 330 327 326 327 327 328
312 311 311 312 312 312 312 312 312 312 312 312 312 311 311 311 310 311 311 310 310 310 309 309 309 309 310 311 311 312 313 314 315 317 318 319 319 320 321 322 324 327 330 330 329 330 330 330 330 329 329 329 330 331 331 332 332 330 328 328 327 326 327
312 312 312 312 312 312 312 312 312 311 311 311 310 310 310 310 309 309 308 308 309 308 308 308 308 308 308 309 310 310 311 311 313 314 316 317 318 319 321 321 322 324 327 329 330 329 329 329 330 330 330 329 330 331 330 331 333 331 329 328 329 327 326
313 312 312 312 312 312 312 311 311 311 310 310 310 310 309 309 308 308 307 307 307 307 307 307 307 307 307 308 308 309 309 310 311 312 313 315 316 317 319 320 321 322 323 326 329 329 328 328 329 330 330 329 329 330 330 330 331 330 329 328 328 328 326
313 312 312 312 312 311 311 311 310 310 310 309 309 309 309 308 307 307 307 306 306 306 306 306 306 306 306 306 307 307 308 308 309 310 311 312 313 315 316 317 319 321 322 323 325 327 327 327 328 329 330 329 328 329 329 329 329 329 328 327 328 328 326
313 312 312 312 312 311 311 311 310 310 310 309 309 309 308 307 307 306 306 306 306 306 306 306 306 306 306 306 306 306 306 307 307 308 308 309 311 312 314 315 317 319 320 322 323 324 326 326 326 326 327 329 329 329 329 329 328 327 327 326 327 327 325
313 313 312 312 312 312 311 311 310 310 309 309 309 308 308 307 307 306 306 306 306 306 306 306 306 305 305 305 305 305 305 306 306 306 307 307 308 309 311 313 315 316 319 320 321 322 323 325 325 326 327 328 329 329 329 329 328 327 326 326 327 327 325
313 313 312 312 311 311 311 311 311 310 310 309 308 308 307 307 306 306 305 305 305 305 305 305 305 305 305 305 305 305 305 305 305 305 306 306 307 308 309 311 312 314 317 319 320 321 322 323 324 325 327 328 329 329 329 329 328 327 327 326 326 327 324
313 312 312 312 311 311 311 311 310 310 309 309 308 307 307 306 306 305 305 304 304 304 304 305 305 304 304 304 304 304 304 304 304 305 305 305 306 307 307 309 310 312 315 317 318 320 321 322 323 324 327 328 328 329 328 328 328 327 327 326 326 326 324
313 312 312 312 311 311 311 310 309 309 308 308 307 307 306 305 305 304 304 304 304 304 303 304 303 303 304 304 303 304 303 303 304 304 304 305 305 306 307 308 309 311 313 315 317 318 319 321 322 323 326 327 327 328 327 327 328 327 327 326 326 325 323
312 312 312 311 311 310 310 309 308 307 307 307 306 306 305 304 304 304 304 303 303 303 303 303 303 303 303 303 303 303 303 303 303 304 304 304 305 305 306 307 308 309 310 312 314 317 319 319 320 321 323 325 327 327 327 326 327 327 327 326 326 325 323
312 311 311 311 310 309 308 308 308 307 306 306 305 305 304 304 304 304 304 304 303 303 303 303 303 303 303 303 303 303 303 303 303 304 304 304 305 305 306 306 307 308 309 310 312 314 316 318 319 320 321 322 325 326 327 326 326 326 326 325 325 325 323
311 311 310 310 309 308 308 308 307 306 306 305 304 304 303 303 303 303 303 303 303 303 302 302 302 303 302 303 302 302 302 302 302 303 303 304 304 305 306 306 307 307 308 309 310 311 313 315 317 318 319 319 320 322 324 326 326 326 325 325 325 324 322
311 311 310 309 308 308 308 307 307 306 305 304 304 303 303 303 303 302 302 302 302 302 302 302 302 302 302 302 302 302 302 302 302 302 302 302 303 303 304 305 306 307 307 308 309 310 311 312 314 315 317 318 318 318 320 322 324 326 326 325 325 324 322
311 310 309 308 308 307 307 307 306 305 304 304 303 303 303 302 302 302 301 301 301 301 301 301 301 301 301 301 301 301 301 301 301 301 301 302 302 302 303 304 305 306 307 308 309 309 310 311 312 314 315 317 317 317 317 318 320 322 324 325 326 325 323
309 308 308 307 307 307 307 306 305 305 304 304 303 303 302 302 301 301 301 300 300 300 300 299 300 299 299 299 299 299 299 299 300 301 301 301 301 301 302 302 303 304 305 307 308 309 310 311 312 313 314 315 316 317 317 317 317 318 320 323 326 326 325
308 308 307 307 306 306 306 305 305 304 303 303 302 302 301 301 301 301 300 300 300 299 299 299 298 298 298 298 298 298 298 298 298 299 299 300 300 301 301 301 302 302 303 305 306 308 310 311 312 313 314 315 315 315 315 316 317 316 317 319 323 325 326
307 307 307 307 306 306 306 305 304 303 303 302 302 301 301 301 301 301 300 300 299 299 298 298 298 298 297 297 297 297 297 297 297 298 298 298 299 299 300 300 301 301 302 302 304 306 308 310 312 313 315 316 316 316 316 315 316 316 316 316 319 322 325
306 306 306 306 306 306 305 304 303 303 302 301 301 301 301 301 301 300 300 299 299 298 298 297 297 297 297 296 296 296 296 296 297 297 297 298 298 298 299 299 300 300 301 301 302 303 305 307 308 310 312 315 317 317 318 318 317 317 317 317 318 318 321
306 306 306 306 306 305 305 304 303 302 301 301 301 301 300 300 300 299 299 299 298 298 297 297 297 296 296 296 296 296 296 296 296 296 297 297 297 298 298 298 299 299 300 300 301 302 302 304 305 306 308 312 315 317 319 319 319 320 319 318 319 318 318
305 306 305 305 305 304 304 303 302 301 301 301 301 300 300 299 299 299 298 298 297 297 296 296 296 295 295 295 295 295 295 296 296 296 296 297 297 297 298 298 298 299 299 300 300 301 301 302 303 304 307 309 312 315 319 320 321 322 321 320 320 320 319
305 305 305 304 304 303 302 302 301 300 300 300 299 299 299 298 298 298 298 297 296 296 295 295 295 295 295 295 295 295 295 295 295 295 296 296 296 297 297 298 298 298 298 299 299 300 300 301 302 303 305 309 312 314 317 320 322 322 322 322 322 322 322
304 303 303 303 302 302 301 300 300 299 299 299 299 298 298 298 298 297 297 296 295 295 294 294 294 294 294 294 294 293 294 295 295 295 295 296 296 297 297 297 298 298 298 298 299 299 299 300 301 302 303 305 309 313 317 319 321 321 321 321 322 323 324
302 301 302 302 302 301 301 300 299 299 299 298 298 297 298 297 297 297 296 295 294 294 294 294 294 294 293 293 293 293 293 294 295 295 295 296 296 296 297 297 297 298 298 298 298 299 299 299 300 301 301 302 304 308 313 316 318 318 319 320 321 322 323
300 300 301 301 301 301 300 299 298 298 298 298 297 297 297 297 296 296 295 294 294 294 293 293 293 293 293 293 293 293 293 294 294 295 295 295 296 296 297 297 297 298 298 298 299 299 299 300 300 300 301 301 302 303 306 311 316 317 317 318 318 318 317
300 300 300 300 300 299 299 299 298 297 297 297 296 296 296 296 295 295 295 294 293 293 293 293 293 293 293 293 293 293 293 293 293 294 294 295 296 296 296 297 297 298 298 299 299 299 300 300 301 301 301 301 302 302 303 307 313 315 314 315 315 313 311
299 299 299 299 299 298 299 298 298 297 297 296 296 295 295 295 294 294 294 293 293 293 292 292 292 292 292 292 292 292 292 293 293 293 293 294 294 295 296 297 297 298 299 299 299 300 300 301 302 302 302 302 302 302 303 306 311 312 311 311 311 310 309

ECMWFFLT1_925_thetae_003.txt.gz
Theta_e
314 310 310 309 311 313 313 315 316 316 317 318 318 318 317 318 319 319 319 320 320 320 321 322 322 322 323 323 324 326 327 329 331 331 332 332 333 334 334 334 333 333 332 332 332 333 333 333 330 329 329 329 329 328 329 328 326 326 326 326 327 327 328
313 311 312 312 312 313 313 314 316 317 316 316 317 318 318 318 318 318 318 319 319 320 321 321 321 321 321 322 323 324 324 325 327 329 331 331 332 333 333 333 332 332 332 331 331 330 330 331 331 329 328 329 331 329 329 328 326 327 327 326 326 327 328
314 313 313 314 313 313 313 313 314 317 317 316 315 316 317 316 315 314 313 313 314 316 317 318 320 321 320 320 321 322 323 323 324 326 328 330 331 332 333 333 332 331 329 330 330 330 329 329 330 329 327 328 331 331 329 329 327 327 327 326 326 326 327
314 315 314 315 313 313 315 313 314 317 316 316 316 315 315 314 313 312 309 308 310 311 312 313 316 319 319 319 319 320 321 322 322 323 325 328 329 330 332 332 332 330 329 328 328 329 329 328 329 329 327 326 328 329 329 329 328 328 327 326 326 326 326
315 315 314 314 313 313 315 314 314 315 314 315 315 315 316 316 316 314 310 308 310 313 315 315 316 317 317 318 319 319 320 320 321 321 322 325 328 329 330 331 331 331 330 329 328 328 328 328 328 328 327 327 329 328 328 328 328 328 328 328 326 326 326
315 314 313 314 314 313 314 314 314 314 314 315 314 314 316 316 315 313 310 309 310 310 311 312 314 316 316 316 317 317 318 319 320 320 320 321 324 327 329 329 330 330 330 330 329 328 328 327 327 327 327 327 330 329 328 329 329 328 328 329 328 327 326
315 314 313 314 316 314 313 313 314 314 313 314 314 314 314 313 313 312 310 309 309 308 308 308 310 313 314 315 316 316 316 317 318 319 319 319 320 322 325 328 329 329 330 331 331 330 329 328 328 328 327 328 329 329 329 330 330 329 329 328 328 328 327
316 315 313 314 315 314 313 314 314 313 312 313 313 313 313 313 313 312 311 310 309 309 311 311 311 312 313 314 315 315 316 316 317 317 318 318 318 319 322 325 326 327 328 329 330 330 330 329 329 329 329 329 330 330 329 330 330 329 329 328 328 328 328
316 315 314 314 314 313 313 313 313 313 312 312 312 312 313 313 313 313 312 311 310 310 311 311 311 311 311 312 312 313 314 315 316 316 316 317 318 319 320 321 323 325 326 327 328 329 329 329 329 329 329 329 330 330 330 330 330 329 328 328 328 328 328
316 315 314 313 313 314 313 312 312 313 313 312 312 312 312 312 313 313 312 311 311 311 311 310 310 310 310 310 310 311 311 313 314 314 315 315 316 317 318 319 320 322 323 325 326 327 328 329 329 329 329 329 328 329 329 330 329 328 328 328 328 328 328
315 314 313 312 313 313 313 312 311 311 312 312 312 312 312 313 313 311 311 311 311 311 310 310 309 309 309 309 309 309 310 310 311 312 312 313 315 316 317 318 319 319 321 323 325 326 326 328 329 329 329 328 328 327 328 328 328 327 326 327 327 327 328
315 314 313 312 312 312 312 311 309 309 311 312 312 312 312 311 310 309 309 310 310 309 308 308 308 308 308 308 308 308 308 309 309 310 310 311 312 313 314 316 317 318 319 320 323 325 326 326 327 329 329 328 327 327 327 327 328 327 326 327 327 326 327
314 313 313 312 312 312 312 310 308 310 311 312 311 311 310 309 309 309 309 308 308 308 307 306 306 307 307 307 307 307 307 307 308 308 309 309 310 311 312 313 314 315 316 317 319 323 326 327 327 328 329 329 328 328 327 327 327 327 326 327 327 327 327
314 313 312 311 311 312 311 310 310 311 311 310 309 308 307 308 308 308 308 307 307 307 306 306 306 306 306 306 306 306 306 306 306 307 307 308 308 308 309 310 311 313 314 315 316 318 322 326 328 328 328 329 329 329 328 327 327 327 327 327 328 328 327
314 312 311 311 311 311 310 309 310 311 310 309 308 307 307 308 308 308 308 307 307 306 306 306 306 306 306 306 306 306 306 306 306 306 306 307 307 307 307 308 309 310 311 312 314 315 317 321 325 328 328 329 329 328 328 328 327 327 327 327 328 328 327
314 312 311 311 311 310 310 310 310 309 309 308 308 308 308 308 308 308 307 307 306 306 306 306 306 306 306 306 306 305 305 305 305 305 306 306 306 306 306 306 307 308 309 310 311 313 314 316 320 324 326 328 329 329 328 327 327 327 327 327 327 328 327
314 312 312 312 311 311 310 310 310 309 309 309 309 309 309 309 308 308 307 306 306 306 305 305 305 305 305 305 305 305 305 305 305 305 305 305 305 306 306 306 306 306 307 307 308 310 312 314 316 320 323 325 326 327 328 328 327 327 327 326 326 327 327
314 313 312 312 312 311 311 310 310 310 310 309 309 309 309 308 308 307 307 306 305 305 305 304 304 304 304 304 304 304 304 305 305 305 305 305 305 305 305 305 306 306 306 306 307 308 310 311 313 316 320 322 323 325 326 327 327 326 327 326 326 326 326
314 313 312 312 312 311 311 311 310 310 310 310 309 309 309 308 307 307 306 305 305 304 304 304 303 303 303 303 303 303 304 304 304 304 304 304 304 304 304 305 305 305 306 306 306 307 308 309 311 314 316 319 321 322 324 325 326 327 327 326 326 326 326
314 313 312 312 312 311 311 311 311 310 310 310 309 309 308 307 306 306 305 304 304 304 303 303 303 303 303 303 303 303 303 303 303 303 304 304 304 304 304 304 304 305 305 305 305 306 307 308 310 312 314 316 318 320 323 324 324 326 327 327 326 326 325
314 313 313 312 312 311 311 311 311 310 310 309 308 308 307 306 306 305 304 304 303 303 303 303 303 303 303 303 303 303 303 303 303 303 303 303 303 304 304 304 304 304 304 305 305 305 306 307 308 310 311 313 315 316 319 322 323 324 325 326 326 325 325
313 313 312 312 312 311 311 311 310 310 309 308 307 307 306 305 304 304 303 303 303 302 302 302 302 302 302 302 302 302 302 303 303 303 303 303 303 303 303 303 304 304 304 305 305 305 305 306 307 308 308 309 310 311 313 317 321 323 324 324 325 325 324
313 313 312 312 311 311 311 310 309 309 308 307 307 306 305 304 304 303 303 302 302 302 301 301 301 301 301 301 301 301 301 301 301 301 302 302 302 302 302 302 302 303 303 304 304 305 305 305 306 306 307 307 308 309 309 311 314 320 324 324 325 325 324
313 312 311 311 311 310 309 309 308 308 308 307 306 305 304 304 303 303 302 302 302 301 301 300 300 300 300 300 300 300 300 299 299 299 300 300 301 301 301 301 301 301 302 302 302 303 304 305 306 306 307 307 307 308 308 308 309 313 319 323 325 324 323
312 311 311 311 310 309 308 308 308 307 307 306 305 305 304 303 303 302 302 301 301 301 300 300 300 299 299 299 299 299 299 299 298 298 298 298 299 300 300 301 301 301 301 301 301 302 302 304 305 306 306 307 307 308 308 309 309 309 312 317 322 323 322
311 311 310 310 309 308 308 307 307 307 306 305 305 304 303 303 302 301 301 301 300 300 300 300 300 300 299 299 298 298 298 298 298 297 297 297 297 298 298 299 299 300 301 301 301 301 301 302 303 304 305 307 308 308 309 309 310 310 310 312 316 320 322
311 310 309 308 308 307 307 307 306 306 305 305 304 303 302 302 301 301 300 300 300 300 300 300 300 299 299 298 298 298 297 297 297 297 296 296 297 297 297 297 298 298 299 299 300 300 301 301 302 302 303 305 307 308 309 310 310 311 311 311 312 314 318
309 309 308 307 307 307 306 306 306 305 305 304 303 302 301 301 300 300 300 300 299 299 299 299 299 298 298 297 297 297 296 296 296 296 296 296 296 296 296 297 297 297 297 298 298 299 299 300 301 301 302 303 304 306 307 308 310 311 312 312 312 312 314
308 307 307 307 307 306 306 306 305 304 303 302 301 301 300 300 299 299 299 299 298 298 298 298 298 297 297 296 296 295 295 295 295 295 295 295 295 295 296 296 296 296 297 297 297 298 298 299 299 300 301 301 302 302 304 306 307 309 310 312 314 314 314
307 306 306 306 306 306 305 305 303 302 301 300 300 300 299 299 298 298 298 298 298 297 297 297 297 296 295 295 295 294 294 294 294 294 294 294 295 295 295 295 295 296 296 297 297 297 298 298 299 299 300 300 301 301 302 303 305 306 308 310 313 314 315
306 306 306 306 305 305 304 303 301 300 300 300 299 299 298 298 297 297 297 297 297 297 296 296 296 295 295 294 294 294 294 294 294 294 294 294 294 294 294 294 295 295 296 296 297 297 298 298 298 299 299 300 300 300 300 301 303 305 306 308 310 313 316
305 305 305 304 304 303 303 302 300 300 300 299 298 298 297 297 297 296 296 296 295 295 295 295 295 295 294 294 294 293 293 293 293 293 293 293 293 293 293 294 294 295 295 295 296 296 297 298 298 299 299 300 300 300 300 301 302 304 307 309 311 313 316
304 304 304 303 303 302 301 301 300 300 299 298 298 297 297 296 296 296 295 295 295 294 294 294 294 294 294 293 293 293 293 293 293 293 293 293 293 293 293 294 294 294 295 295 296 296 296 297 298 298 299 299 299 299 300 300 301 304 307 310 310 312 315
303 302 302 301 301 300 300 300 300 299 298 297 297 297 296 296 296 295 295 295 294 294 294 293 293 293 293 293 292 292 292 292 292 292 292 292 292 293 293 293 294 294 295 295 295 296 296 296 297 297 298 298 299 299 299 300 300 302 304 305 306 307 312
301 300 300 300 300 300 301 300 300 299 298 297 297 297 296 296 295 294 295 294 294 294 293 293 293 292 292 292 292 292 292 291 291 291 292 292 292 292 292 293 293 294 294 295 295 296 296 296 297 297 297 298 298 298 299 299 299 300 301 302 303 304 309
300 300 300 300 300 300 300 300 299 298 297 297 297 296 296 295 295 294 294 294 293 293 293 292 292 292 291 291 291 291 291 291 291 291 291 291 291 292 292 292 293 293 294 294 295 296 296 296 297 297 297 297 298 298 298 298 298 298 299 300 301 303 307
299 299 299 299 299 298 299 299 298 298 297 297 296 296 296 295 294 294 293 293 293 293 292 292 292 291 291 291 291 290 290 290 290 290 291 291 291 291 291 292 292 292 293 293 294 295 296 296 297 297 297 297 297 298 298 297 298 298 298 299 300 302 306

ECMWFFLT1_925_thetae_006.txt.gz
Theta_e
313 311 312 312 311 311 312 312 312 314 316 316 316 317 316 317 318 319 319 319 319 320 320 321 322 321 321 321 321 322 321 322 325 327 329 329 329 329 330 330 330 331 330 329 330 331 334 337 333 330 330 328 328 327 327 328 327 329 329 327 327 327 327
313 309 310 310 308 309 311 314 314 314 316 317 317 316 316 316 316 316 316 316 316 317 317 317 318 318 319 320 320 320 321 320 321 323 325 326 328 328 329 329 330 331 331 329 328 328 329 332 334 333 330 327 328 328 328 328 328 328 329 328 327 327 327
311 308 310 310 308 308 310 314 315 315 316 316 316 317 316 314 312 311 310 309 309 310 310 310 311 313 317 318 318 318 319 319 319 320 321 321 323 326 328 329 330 330 331 330 329 329 328 328 331 332 328 327 329 328 327 329 328 328 328 327 327 327 327
313 309 311 311 309 309 309 312 315 316 315 314 315 315 314 312 309 307 305 305 305 305 305 305 307 310 314 316 316 316 316 317 318 318 319 319 320 321 323 326 329 330 330 330 329 329 329 328 328 329 327 327 327 327 327 328 328 328 328 327 327 326 327
314 311 312 313 311 310 310 311 314 316 316 315 313 312 312 310 308 307 306 305 305 305 305 305 305 307 309 311 312 313 314 314 315 316 316 318 318 319 319 320 323 327 329 330 329 329 328 328 328 328 327 327 327 327 326 327 326 327 327 327 327 326 326
314 313 313 313 312 311 311 312 314 316 316 316 314 312 312 312 310 309 308 306 305 306 306 305 305 306 307 308 309 310 312 313 314 314 315 316 316 317 318 318 319 322 325 327 328 328 327 327 327 327 327 327 327 326 326 326 326 326 326 327 326 327 327
314 314 313 314 313 312 311 312 313 314 314 315 314 313 313 315 314 312 309 307 307 307 305 304 304 305 306 308 309 310 311 313 313 314 314 315 315 315 316 317 317 319 321 323 326 328 327 327 327 326 326 326 326 326 326 326 327 327 327 326 326 326 326
315 315 314 314 313 312 312 312 312 313 313 313 314 314 314 315 314 312 311 310 310 308 306 304 304 305 306 307 309 309 310 311 312 313 314 314 314 314 314 315 316 317 318 319 322 325 326 327 327 327 327 327 327 327 327 327 327 328 328 327 327 327 326
316 315 315 314 313 313 313 312 311 312 313 313 313 314 313 313 312 312 312 311 311 309 307 306 307 308 307 307 308 308 309 309 310 311 311 312 312 312 313 313 314 315 316 317 318 320 322 325 327 327 327 327 328 329 328 328 327 327 328 328 329 328 327
316 315 315 313 313 314 314 313 312 313 313 312 313 312 312 312 312 312 312 312 311 309 307 307 308 309 309 308 308 308 308 308 309 309 309 310 310 310 311 311 312 313 314 315 316 317 319 322 324 326 327 326 326 327 328 329 328 326 326 327 328 328 327
316 315 315 314 313 315 314 313 313 313 313 312 312 312 312 312 312 312 312 311 309 308 308 309 308 307 306 306 307 308 308 308 308 308 308 308 308 308 309 309 310 311 312 312 313 315 316 317 320 323 326 326 325 325 326 327 327 326 325 326 326 327 327
315 315 316 315 314 314 314 313 313 313 313 312 312 312 312 311 312 312 311 309 308 308 309 308 307 306 305 305 305 306 307 307 307 307 307 307 307 307 307 308 308 309 310 310 311 312 313 314 315 318 321 325 326 326 324 324 326 327 326 326 326 326 326
316 316 316 315 314 314 313 313 312 312 312 312 312 311 311 312 311 310 309 308 308 308 308 307 306 305 305 305 305 305 305 306 306 306 306 306 306 306 306 306 307 307 307 308 308 309 310 311 312 314 316 319 323 326 326 325 325 326 324 325 326 326 326
316 316 316 315 314 313 313 313 312 312 311 310 310 311 311 311 309 308 307 308 308 307 307 306 306 305 305 305 305 305 305 305 305 305 305 305 305 304 305 305 306 306 306 306 307 307 308 309 310 311 312 315 319 322 325 326 325 324 324 325 326 326 326
316 316 316 315 313 312 312 313 312 311 309 308 310 310 310 308 307 307 307 308 307 307 307 306 306 306 305 305 305 305 305 305 305 305 305 305 305 304 304 305 305 306 306 306 306 306 306 307 308 309 310 312 315 318 321 324 325 325 326 326 326 326 326
317 316 315 314 313 312 312 312 312 310 308 309 310 309 307 307 307 308 308 308 307 306 306 305 305 305 305 305 304 304 304 304 304 304 304 304 305 305 305 305 305 305 305 306 306 306 306 306 306 307 308 309 311 313 317 320 323 324 325 326 326 326 326
317 315 314 313 312 312 312 312 311 309 308 308 308 308 308 308 308 308 308 307 307 306 305 305 304 304 304 304 303 303 303 303 303 303 303 303 304 304 304 305 305 305 305 305 305 305 305 305 306 306 307 308 309 311 313 316 319 322 324 325 325 326 326
317 315 314 313 312 311 311 311 310 308 308 308 308 308 308 308 308 308 307 307 306 305 304 304 304 303 303 303 303 303 303 303 302 302 302 303 303 303 304 304 304 304 304 305 305 305 305 305 305 305 305 306 307 309 311 313 316 319 322 323 323 324 325
316 315 314 313 312 311 310 310 309 309 308 308 309 309 309 309 308 308 307 306 305 304 304 303 303 303 303 303 303 302 302 302 302 302 302 302 302 303 303 303 303 303 304 304 304 304 305 305 305 305 305 305 306 307 309 311 313 315 318 321 322 322 323
316 315 314 313 312 311 310 310 309 309 309 309 310 309 309 309 308 307 306 305 304 304 303 303 303 302 302 302 302 301 302 302 302 302 302 302 302 302 303 303 303 303 303 303 303 303 304 304 305 305 305 305 305 306 307 308 309 309 312 316 320 322 323
316 315 314 313 312 311 311 311 310 310 310 310 310 310 309 308 307 306 305 304 303 303 303 302 302 302 302 301 301 301 301 300 300 300 301 301 301 302 302 302 302 302 303 303 303 303 304 304 305 305 305 305 305 305 306 306 307 307 308 311 315 319 322
315 314 313 312 312 312 311 311 311 310 310 310 310 309 308 307 307 305 304 303 303 303 302 302 302 301 301 301 300 300 299 299 299 299 299 299 299 299 300 300 301 301 302 302 302 302 302 303 303 303 303 304 304 305 305 305 305 306 307 309 311 314 318
314 314 313 312 312 312 311 311 311 310 310 310 309 308 307 307 305 304 303 303 303 302 302 302 301 301 300 300 299 299 299 299 299 298 298 298 298 298 298 298 299 299 300 300 300 300 301 301 301 301 301 302 303 303 304 305 305 305 306 307 308 310 313
314 313 313 312 312 312 311 311 311 311 310 309 308 307 307 306 304 304 303 302 302 301 301 300 300 299 299 299 299 299 299 299 299 298 298 298 298 298 297 297 297 297 298 298 299 299 300 300 300 300 301 301 301 302 303 303 304 305 305 306 307 308 310
314 313 312 312 312 312 311 311 311 310 309 308 307 307 306 305 304 303 302 301 301 300 300 299 299 299 299 299 299 299 299 299 299 298 298 298 297 297 297 297 297 296 297 297 297 297 298 298 299 299 300 300 300 301 301 302 302 303 304 305 306 307 308
313 313 313 312 312 311 311 310 309 308 308 307 306 306 304 303 303 302 301 300 300 299 299 298 298 298 298 298 298 298 298 298 298 297 297 297 296 296 296 296 296 296 296 296 296 296 296 297 297 298 298 299 300 300 300 300 301 302 302 304 305 306 307
313 312 312 311 311 311 310 309 308 307 307 306 305 304 303 302 301 300 300 299 298 298 297 297 297 297 297 297 297 297 297 296 296 296 295 295 295 295 295 295 295 295 295 295 295 295 296 296 296 296 297 298 298 299 300 300 301 301 302 303 305 306 307
312 312 311 311 310 309 308 308 307 306 305 305 304 302 301 301 300 299 298 297 297 296 295 295 295 295 295 295 295 295 295 295 295 294 294 294 294 294 294 294 294 294 294 294 294 295 295 295 295 296 296 296 297 297 298 299 300 301 301 303 304 305 306
312 311 310 309 309 308 307 307 306 305 305 303 302 301 300 299 299 298 297 296 294 294 293 293 294 294 294 294 294 294 294 294 294 294 294 293 293 293 293 294 294 294 294 294 294 294 294 294 295 295 296 296 296 296 297 297 298 299 300 301 302 302 303
311 310 309 308 307 307 306 306 305 304 303 301 301 300 299 298 298 297 296 294 293 293 293 293 293 294 294 294 294 293 293 293 293 293 293 293 293 293 293 293 293 293 293 293 293 294 294 294 294 295 296 296 296 296 297 297 297 298 298 299 300 300 300
309 308 307 307 306 306 305 305 303 302 301 301 300 299 298 298 297 296 294 293 293 293 293 293 293 293 294 294 293 293 293 293 293 292 292 292 292 292 292 292 293 293 293 293 293 293 293 294 294 295 295 296 296 297 297 297 297 298 298 298 299 299 300
308 307 306 306 305 305 304 303 302 301 300 299 298 297 298 298 296 294 293 293 292 292 292 292 293 293 293 293 293 293 292 292 292 292 292 292 292 292 292 292 292 292 292 292 292 293 293 293 294 294 295 295 296 297 297 297 298 298 298 298 299 299 300
306 306 305 305 304 303 302 301 300 300 299 297 297 298 298 297 296 294 293 292 291 291 291 292 292 292 292 292 292 292 292 292 292 291 291 291 291 291 291 291 291 291 291 292 292 292 292 293 293 294 294 295 295 296 296 297 298 298 298 299 299 299 300
306 305 304 304 303 301 300 299 298 298 298 298 298 298 298 297 296 295 293 291 290 290 290 291 292 292 292 292 292 292 292 291 291 291 291 291 291 291 291 291 291 291 291 291 291 292 292 292 292 293 294 294 295 295 296 296 297 298 298 298 298 299 299
304 303 302 301 300 299 298 298 299 299 299 299 299 298 297 296 296 294 292 290 290 290 290 291 291 291 292 292 291 291 291 291 291 291 290 290 290 290 290 290 290 291 291 291 291 291 291 292 292 292 293 294 294 295 295 296 296 297 297 297 298 298 298
301 300 299 299 299 299 299 299 299 299 300 299 298 297 296 296 295 294 291 290 290 290 290 291 291 291 291 291 291 291 291 291 291 291 290 290 290 290 290 290 290 290 290 290 291 291 291 291 291 292 292 293 293 294 295 295 296 296 296 297 297 297 298
299 299 299 299 299 298 298 299 299 300 300 298 297 297 296 296 295 293 291 291 290 290 290 291 291 291 291 291 291 291 291 291 291 291 290 290 290 290 290 290 290 290 290 290 290 290 291 291 291 291 292 292 292 293 294 295 295 296 296 296 296 297 297

ECMWFFLT1_925_thetae_009.txt.gz
Theta_e
310 309 308 309 311 313 314 315 314 314 316 316 315 316 316 317 318 318 318 318 319 319 320 320 320 319 319 319 320 320 320 319 320 321 322 323 324 325 325 326 328 328 328 328 327 328 329 330 329 328 328 328 328 328 327 327 326 326 326 327 327 327 327
311 309 309 310 311 311 312 312 312 314 316 317 316 316 316 317 317 317 316 316 316 316 316 316 316 316 317 318 318 318 318 318 317 318 319 319 320 321 322 323 325 326 327 328 328 328 328 328 329 330 328 328 328 328 328 328 327 327 326 326 327 327 327
311 310 311 311 310 309 309 309 310 313 315 316 317 317 316 317 316 313 311 310 310 310 309 309 309 310 311 313 314 314 314 314 314 315 316 317 317 318 319 319 320 322 325 327 328 329 328 328 329 329 327 327 328 328 328 328 327 327 327 327 327 327 327
312 311 311 312 311 308 308 308 309 311 314 315 316 317 316 316 313 309 306 306 306 305 305 305 305 305 306 307 308 309 310 311 312 313 313 315 315 316 317 317 318 319 321 324 326 327 328 328 328 328 327 327 327 327 328 328 327 327 327 327 327 327 327
313 311 309 310 310 308 308 308 308 310 312 314 315 316 315 313 309 306 305 305 304 304 304 304 304 303 304 305 305 306 307 309 310 311 312 313 313 314 315 315 316 317 318 320 321 323 325 327 327 328 327 328 327 327 327 327 327 327 327 327 327 326 326
314 312 309 309 309 308 307 308 308 309 310 312 313 314 313 311 309 307 306 306 306 306 305 304 303 303 304 305 305 306 307 308 309 310 311 312 312 313 313 313 314 315 315 316 317 319 321 324 326 326 326 327 327 327 327 327 327 327 327 326 326 326 325
315 314 311 310 310 310 308 308 308 308 308 309 309 310 311 311 311 310 309 309 308 308 307 305 303 303 303 304 305 306 307 308 308 309 309 310 310 311 311 312 312 313 313 314 315 316 318 321 324 325 326 326 326 326 326 326 326 326 326 327 326 327 327
316 316 314 312 312 311 311 309 308 308 308 308 309 310 311 311 311 311 311 311 309 309 308 305 303 303 304 305 307 307 307 308 308 308 308 308 308 309 309 309 310 310 311 312 313 314 316 318 319 321 323 325 326 326 326 326 326 326 327 326 327 327 327
315 315 315 313 312 312 312 311 310 309 308 309 311 312 313 313 313 313 313 311 310 310 308 305 303 304 305 306 306 305 306 306 307 307 307 307 307 307 308 308 308 308 309 310 311 311 313 314 315 317 319 322 325 326 326 326 325 325 326 326 326 326 326
315 314 314 313 313 313 313 312 311 310 309 310 312 313 313 314 314 313 312 312 311 311 308 305 304 305 306 305 305 304 304 305 305 306 306 306 306 306 306 306 306 306 307 307 308 309 310 311 312 313 314 317 320 323 325 326 325 324 323 324 325 325 324
315 314 314 314 313 313 313 313 312 311 310 311 312 313 313 313 313 312 312 311 311 310 307 305 305 306 306 305 304 304 304 305 305 305 305 305 305 305 305 305 304 305 305 305 306 307 307 308 309 310 311 312 315 318 322 324 325 324 323 324 324 323 324
316 315 314 314 314 314 314 313 312 312 311 311 312 313 312 312 312 312 311 311 311 309 306 305 306 306 305 305 305 305 305 305 305 305 305 305 305 305 305 305 304 304 304 305 305 305 306 306 307 307 308 309 310 313 316 319 321 322 323 324 323 323 324
316 315 315 315 315 315 314 313 313 312 312 312 312 312 311 312 311 311 311 311 309 307 305 306 306 306 305 305 305 305 305 305 305 305 305 304 304 304 304 304 304 304 304 304 305 305 305 305 306 306 306 307 307 309 312 315 318 319 320 322 323 323 323
317 316 316 316 316 315 314 313 313 313 313 312 312 312 312 311 310 311 311 309 307 306 306 306 306 306 306 305 305 305 305 304 304 304 304 303 303 303 303 303 303 304 304 304 305 305 305 305 305 305 305 306 306 307 309 312 315 316 317 318 321 322 323
317 317 317 316 315 314 314 313 314 314 313 312 313 312 311 311 311 310 309 307 306 306 307 307 306 306 305 305 305 304 304 303 303 303 302 302 302 302 302 302 303 303 303 304 304 304 304 304 304 305 305 305 306 306 307 310 312 314 315 316 317 319 321
317 317 316 315 315 315 314 314 314 313 313 313 312 311 311 311 310 308 307 306 307 307 307 306 306 305 304 304 304 303 303 303 302 302 302 302 302 302 302 302 302 302 302 303 303 303 304 304 304 305 305 305 305 305 305 307 310 312 314 314 315 317 319
316 316 316 315 315 315 314 314 313 313 312 312 311 311 311 310 308 307 307 307 308 307 307 306 305 305 304 303 303 303 303 302 302 302 302 302 302 302 302 302 302 302 302 302 302 302 303 303 304 304 304 304 304 304 305 305 307 309 312 313 313 315 317
315 316 315 315 315 315 314 313 312 312 312 310 310 310 310 308 307 307 308 308 308 307 306 305 304 304 303 303 302 302 302 302 301 301 301 301 301 301 302 302 302 301 302 302 302 302 302 302 303 303 303 303 303 304 304 305 305 307 309 310 310 310 312
315 315 315 315 316 315 314 313 312 312 311 309 310 309 308 307 307 308 308 308 307 306 305 304 303 303 302 302 302 302 301 301 300 300 300 300 300 300 301 302 302 301 302 302 302 302 302 302 302 303 303 303 303 304 304 304 304 305 306 306 307 308 309
316 315 315 315 315 314 313 312 312 311 310 309 309 309 308 308 308 308 308 307 306 305 304 303 302 302 302 302 301 301 300 300 299 299 299 298 299 298 299 300 300 300 300 301 301 301 301 302 302 302 303 303 303 303 303 303 303 304 304 305 306 307 307
317 316 315 315 314 313 312 312 311 310 309 309 309 309 309 309 309 308 307 306 305 304 303 302 302 302 302 301 301 300 300 299 299 299 299 298 298 298 298 298 298 298 298 298 299 299 300 301 301 301 301 301 301 302 302 302 302 303 304 304 305 305 306
317 316 315 314 313 313 312 311 311 310 309 309 309 309 309 309 308 307 306 304 303 303 302 302 302 301 300 300 299 299 299 299 299 299 299 299 299 299 298 298 298 298 297 297 297 298 298 298 299 299 299 300 299 300 300 301 301 302 302 303 304 304 305
316 314 314 313 313 312 311 311 310 310 310 310 309 310 309 308 307 306 305 303 303 303 302 301 300 300 299 299 298 298 298 298 298 298 298 298 298 298 298 298 297 297 297 297 297 297 296 296 297 297 298 298 299 299 300 300 300 301 301 302 303 304 304
314 314 314 314 313 312 311 311 310 310 310 310 310 309 308 307 306 305 304 303 303 302 301 300 298 297 296 296 296 297 296 296 296 297 297 297 297 297 297 297 297 296 296 296 296 296 296 296 296 296 296 297 297 298 298 299 300 300 300 301 302 303 304
313 313 313 313 313 312 311 311 311 310 310 310 310 308 307 306 305 304 303 303 302 301 299 297 295 293 293 294 294 294 294 294 295 295 295 296 296 296 296 296 296 295 295 295 295 295 295 295 295 295 295 295 295 296 296 297 298 299 299 300 301 301 302
313 312 312 313 313 312 311 311 311 310 310 310 309 307 306 305 304 303 303 302 301 299 296 293 292 292 292 292 293 293 294 294 294 294 294 294 294 294 295 294 294 294 294 294 294 294 294 294 294 294 294 294 294 295 295 296 296 297 298 299 299 299 300
314 313 313 313 313 312 311 311 311 310 310 309 307 306 305 304 304 303 302 300 298 296 293 292 292 291 291 292 292 293 293 294 294 294 293 293 293 293 293 293 294 293 293 293 294 294 294 294 294 294 294 294 294 294 294 295 295 296 296 297 298 299 299
312 312 313 313 312 311 311 311 310 310 309 307 306 305 304 304 303 301 300 299 296 293 292 292 292 291 291 291 292 292 293 293 293 293 293 293 293 293 292 293 293 293 293 293 293 293 293 293 293 293 293 294 294 294 294 294 294 295 295 296 297 298 299
309 309 310 310 310 311 311 310 309 308 307 306 305 304 303 303 301 300 298 297 294 293 292 292 291 291 291 291 291 292 292 292 293 293 293 292 292 292 292 292 292 292 292 292 292 293 293 293 293 293 293 293 293 293 294 294 294 294 295 295 296 296 297
308 308 309 310 310 310 310 309 308 307 306 305 304 303 303 301 299 297 297 295 293 292 292 292 291 290 290 291 291 291 292 292 292 292 292 292 292 292 291 291 292 292 292 292 292 292 292 292 293 293 293 293 293 293 293 294 294 294 294 295 295 295 296
310 310 311 311 310 309 308 308 307 306 305 304 303 302 300 298 297 297 296 294 293 293 292 291 291 290 290 290 291 291 291 292 292 292 292 291 291 291 291 291 291 291 291 292 292 292 292 292 292 292 292 292 293 293 293 293 293 294 294 294 295 295 296
310 310 310 310 309 308 307 306 306 305 304 303 302 299 298 297 297 297 296 294 294 293 292 291 291 290 290 290 290 291 291 291 291 291 291 291 291 291 291 291 291 291 291 291 291 291 291 291 291 291 291 292 292 293 293 293 293 293 294 294 294 295 296
310 309 309 309 308 306 306 305 304 303 303 301 299 297 297 297 297 297 296 295 295 294 293 291 290 291 290 290 290 290 291 291 291 291 291 291 291 291 291 290 290 290 290 290 290 290 290 290 290 290 290 291 291 292 292 292 293 293 294 294 294 295 295
310 309 309 308 306 305 305 304 302 301 300 299 297 297 297 297 298 297 297 296 296 295 293 291 290 291 291 290 290 290 290 291 291 291 291 291 291 291 291 290 290 290 290 290 290 290 290 290 290 290 290 290 291 291 291 291 292 292 293 294 294 295 295
309 308 307 306 305 304 302 300 299 298 298 297 297 298 298 298 298 297 297 296 296 295 294 291 290 291 291 290 290 290 290 290 290 291 291 290 290 290 290 290 290 290 290 290 290 290 290 290 290 290 290 290 290 291 291 291 292 292 293 293 294 295 295
307 306 305 304 302 300 298 298 297 297 298 298 298 298 298 298 297 297 297 296 296 295 294 292 291 291 291 290 289 290 290 290 290 290 290 290 290 290 290 290 290 290 290 290 290 290 290 290 290 290 290 290 290 290 290 291 291 292 292 293 293 294 295
304 303 301 300 298 298 297 298 298 298 298 298 299 299 298 298 297 296 296 296 295 295 294 292 291 292 291 290 289 290 290 290 290 290 290 290 289 289 289 289 289 289 289 288 288 289 289 289 289 289 289 289 290 290 290 290 291 291 292 292 293 293 294

ECMWFFLT1_925_thetae_015.txt.gz
Theta_e
308 308 309 312 313 314 315 315 313 314 315 316 316 317 317 317 317 317 317 317 317 316 316 316 315 315 314 314 315 316 318 319 321 322 322 323 323 323 324 324 325 325 326 327 327 328 328 328 328 328 328 328 327 327 327 328 328 328 328 328 329 329 328
308 308 309 311 314 315 315 314 314 314 315 316 316 317 317 316 316 315 313 310 309 308 308 308 308 308 308 308 310 311 313 314 316 318 319 320 321 321 321 322 322 323 325 326 326 326 326 326 326 326 327 328 327 326 326 327 327 327 328 327 327 328 328
308 308 309 312 314 315 315 314 314 314 315 316 316 316 315 313 312 310 307 305 304 303 303 303 304 304 304 305 306 308 309 311 312 314 315 316 317 318 318 320 320 321 322 323 324 323 324 325 325 325 326 326 326 326 326 326 327 326 327 327 326 327 328
310 309 309 311 313 315 315 314 314 314 315 315 315 316 314 309 308 306 305 306 305 303 303 303 303 304 304 305 306 307 308 310 311 311 311 312 314 315 315 316 318 318 319 320 320 320 322 323 323 323 324 324 324 324 326 326 325 325 327 327 327 328 328
312 310 309 309 311 313 314 314 314 315 315 315 315 316 313 308 305 306 307 307 306 304 303 303 303 304 304 304 305 307 308 309 310 310 310 310 311 312 312 313 314 315 316 317 317 318 319 321 320 321 322 322 322 323 324 325 326 326 326 326 327 328 328
313 312 310 309 309 310 311 312 312 314 315 316 315 315 313 309 306 307 308 308 308 305 304 303 303 303 304 304 305 306 307 308 308 308 308 308 308 309 310 310 310 311 312 313 314 315 316 317 319 320 320 320 320 321 322 323 324 325 325 326 326 326 327
313 312 311 310 309 308 308 308 309 310 312 312 313 312 312 310 309 310 310 310 309 307 304 304 304 303 304 305 305 305 306 307 307 307 307 307 307 307 307 308 308 308 309 310 311 312 313 314 316 317 317 317 319 319 319 320 322 323 324 325 326 325 325
313 313 311 311 310 309 308 307 307 307 308 308 309 310 311 311 311 311 311 310 310 308 305 304 304 304 303 304 305 305 305 306 306 306 307 307 306 306 306 306 307 307 307 307 308 309 310 311 312 314 314 315 316 317 318 317 318 320 320 321 324 325 324
315 314 312 311 310 310 309 308 307 306 307 307 308 309 311 311 312 312 312 311 311 309 306 304 304 304 303 304 305 305 305 306 306 306 307 306 306 306 306 306 306 306 306 306 307 307 308 308 309 310 312 313 314 314 315 315 316 317 318 319 322 323 324
317 316 313 311 311 311 310 309 308 307 307 308 307 308 310 312 313 313 312 312 311 309 306 304 304 304 303 303 304 305 305 306 306 305 305 305 305 305 305 305 305 306 305 306 306 306 306 307 307 308 309 311 312 312 313 313 314 316 317 318 319 319 321
317 316 313 311 311 311 311 310 309 308 307 308 308 308 309 312 313 313 313 312 311 309 306 305 304 304 304 304 304 304 305 306 305 305 304 304 304 304 304 304 305 305 305 305 306 306 306 306 306 307 307 308 309 310 311 312 312 314 316 316 316 317 319
316 315 314 311 311 311 312 312 311 309 308 308 309 309 309 311 313 313 313 312 311 309 307 305 305 305 304 304 305 305 304 305 305 305 304 304 303 304 303 304 304 304 304 305 305 305 305 306 306 306 306 307 307 308 310 310 310 311 313 314 315 316 316
316 315 313 312 311 311 311 313 313 311 309 309 309 309 310 311 312 313 313 313 311 310 307 305 305 305 304 305 305 305 304 303 304 304 304 303 303 303 303 303 303 303 304 304 304 304 304 305 305 305 305 306 306 307 308 308 308 309 311 311 312 313 313
315 314 312 311 311 311 312 312 314 312 310 310 309 309 310 311 312 313 313 313 311 309 307 305 305 305 305 305 304 303 303 303 303 303 303 303 302 302 302 302 302 303 303 304 304 304 304 304 304 304 305 305 305 306 306 307 308 308 309 309 310 310 310
315 314 312 312 311 312 312 312 314 314 312 311 310 310 310 311 312 313 313 312 311 309 306 305 306 306 305 305 303 302 303 303 303 303 302 302 302 302 301 301 301 301 302 303 304 304 303 303 303 303 304 304 304 305 305 306 306 307 308 308 308 308 309
314 314 314 313 313 312 313 313 314 314 314 312 311 311 310 311 312 313 313 312 310 308 306 306 306 306 305 305 303 303 303 303 303 303 303 302 301 301 301 301 301 301 301 302 303 303 303 303 303 303 303 303 303 303 304 304 304 305 306 306 307 307 308
314 314 314 315 315 314 314 313 314 315 315 313 312 311 311 311 312 313 312 311 309 307 306 306 306 306 305 304 304 303 303 303 303 302 302 301 301 301 301 301 301 301 301 301 302 302 302 303 302 302 303 303 303 303 303 303 303 304 304 305 305 305 306
315 315 315 315 315 315 314 314 314 315 315 314 313 312 312 312 312 312 311 310 308 306 306 306 306 306 304 303 303 303 302 302 302 301 301 301 300 301 301 301 301 300 301 301 301 302 302 301 301 301 301 301 302 302 302 303 303 303 303 304 304 304 304
316 315 316 315 315 315 315 314 314 314 315 314 313 312 312 312 312 312 311 310 308 306 306 306 306 305 303 302 302 302 302 301 300 298 298 298 299 299 300 300 300 300 300 300 301 301 301 301 300 300 301 301 301 301 302 302 302 302 302 303 303 303 303
317 316 316 316 316 315 315 315 314 314 314 314 313 312 312 312 312 311 311 310 308 306 306 306 306 304 303 302 302 301 300 298 296 295 295 296 296 297 298 298 299 299 299 299 300 300 300 300 300 300 300 300 300 300 300 301 301 301 302 302 302 302 302
317 317 317 316 316 315 314 315 315 314 314 313 313 312 312 311 311 311 311 309 307 306 306 306 305 304 303 302 301 300 297 295 294 294 294 294 295 295 296 297 297 297 298 298 298 298 298 299 300 300 300 300 300 299 300 300 300 300 301 301 301 302 302
318 318 318 317 316 315 315 314 314 314 313 312 312 311 311 311 311 310 309 308 307 306 306 305 304 303 303 302 300 297 295 293 293 294 295 295 295 295 295 296 296 295 294 294 294 294 294 295 296 298 299 299 299 299 299 299 299 300 300 300 301 301 301
315 317 317 317 317 316 315 314 313 313 312 311 311 311 310 310 311 309 308 307 307 306 306 305 304 303 302 300 298 295 293 293 293 294 294 295 295 295 295 295 295 293 292 292 293 293 293 293 293 294 295 296 297 298 298 299 299 299 299 300 300 300 301
313 315 316 316 316 315 315 313 312 312 311 311 311 311 310 310 310 309 308 307 306 306 305 304 303 302 300 298 295 293 293 293 293 293 294 295 295 295 295 295 294 294 293 293 294 294 293 293 293 293 293 293 294 295 296 297 298 298 298 299 299 300 300
313 314 315 315 315 315 314 313 312 311 311 310 311 311 310 310 310 308 307 307 306 305 304 303 302 300 297 295 293 293 293 293 293 293 294 294 294 294 294 294 294 294 294 293 293 294 294 294 294 294 293 293 293 293 293 294 296 296 297 298 299 299 299
312 314 314 315 315 314 313 312 311 311 310 310 310 310 311 310 309 308 307 306 305 304 303 302 300 296 294 293 293 293 293 292 293 293 293 293 294 294 294 294 294 294 294 293 293 294 295 295 294 294 294 293 293 293 293 293 293 294 295 296 297 297 298
311 313 314 314 314 313 313 312 311 311 310 310 310 310 310 309 308 307 307 306 304 303 302 300 297 294 293 293 293 293 292 292 292 292 292 292 293 293 293 293 293 293 293 294 294 294 294 294 294 294 294 294 294 294 294 294 294 293 294 294 295 296 296
310 312 313 313 313 312 312 311 311 310 310 309 309 309 308 308 307 307 306 305 304 303 300 297 295 293 294 294 294 293 292 292 292 292 292 292 292 292 292 292 292 293 293 293 293 293 293 293 293 293 293 294 294 294 294 294 294 294 294 294 295 295 295
310 311 312 312 312 312 312 311 311 310 309 309 308 308 307 307 307 306 305 304 303 301 298 295 294 294 294 294 293 292 292 292 292 292 292 292 292 292 291 291 292 292 293 293 293 292 292 292 292 292 293 293 293 293 293 293 293 293 293 294 294 294 295
309 311 311 312 311 312 312 311 310 309 308 307 307 307 307 307 306 306 304 303 302 300 297 294 294 294 294 294 293 292 292 293 293 293 293 292 292 292 291 290 291 291 292 293 293 292 291 291 291 292 292 292 292 292 292 292 292 292 292 292 292 292 293
309 310 311 311 311 312 311 310 309 308 307 306 306 306 306 306 305 305 304 302 301 299 296 294 294 295 294 294 293 292 292 293 293 293 293 293 292 292 291 290 290 291 292 292 292 291 290 290 291 291 292 292 292 292 292 292 291 291 291 291 291 291 291
308 310 310 311 311 311 311 310 308 307 306 305 304 304 304 304 304 303 303 301 299 298 296 295 295 295 294 293 292 292 293 293 293 293 293 293 293 292 292 292 291 291 291 291 290 290 290 290 290 291 291 291 291 291 291 291 291 291 291 291 291 291 291
308 309 310 311 310 310 310 308 307 306 304 304 304 304 304 304 303 301 300 298 297 296 296 295 295 294 294 293 292 292 293 293 293 293 293 293 292 292 292 292 292 292 291 290 290 289 289 289 289 290 290 290 291 291 291 291 291 291 291 291 291 291 291
308 309 310 310 310 309 309 307 306 304 304 305 305 305 304 303 302 300 298 297 296 297 296 295 295 294 294 294 293 292 292 292 292 292 292 292 292 292 292 292 292 292 290 290 289 288 288 288 287 288 288 289 289 289 289 290 290 290 290 290 291 291 291
308 308 309 309 308 307 306 305 304 303 303 303 303 303 302 301 300 298 297 296 296 296 296 295 296 295 294 294 293 292 291 291 291 290 291 292 292 292 292 292 291 291 289 289 288 287 287 286 286 287 287 288 288 288 288 288 289 289 289 289 290 290 290
307 308 308 308 306 304 303 302 302 302 302 302 302 302 301 300 298 297 296 297 296 296 296 296 296 295 294 293 292 291 291 291 290 290 290 291 292 291 291 291 290 289 288 287 287 286 286 286 287 287 287 287 287 287 287 288 288 289 289 289 289 289 290
307 307 307 306 304 303 302 302 302 302 303 302 300 299 298 298 297 297 297 297 297 296 296 295 294 293 293 292 292 291 291 290 290 290 290 290 291 291 290 289 289 288 287 286 286 286 286 287 287 287 287 287 287 287 288 288 288 289 289 289 289 290 290